GEFSSE_con_cape1000_222.txt.gz
Probability
42 48 58 55 58 61 61 65 68 58 55 58 58 58 61 61 55 52 52 52 52 52 52 45 42 42 32 19 10 10 6 6 6 3 3 0 0 0 0 0 3 3 3
35 48 58 55 52 55 55 55 58 61 55 55 52 55 55 58 52 48 48 45 48 48 45 42 39 32 35 26 13 10 6 6 6 3 3 3 6 3 0 3 3 0 0
32 42 48 52 48 52 52 52 52 48 48 52 52 45 48 48 52 42 39 42 39 35 42 39 35 39 32 23 16 13 6 6 6 3 3 0 0 3 0 0 3 3 0
29 35 42 42 39 42 42 45 45 42 45 42 48 45 42 42 42 32 29 29 35 32 32 32 35 39 35 32 26 16 10 6 10 6 3 0 0 3 3 3 3 3 0
23 32 42 39 39 42 42 45 39 39 35 32 39 32 32 39 39 35 26 23 26 26 29 29 29 29 32 35 26 26 13 10 6 3 0 0 0 6 6 3 3 3 0
26 29 35 45 35 35 39 39 32 32 29 29 29 26 32 32 35 35 32 23 19 32 26 26 29 29 32 32 29 23 19 10 6 0 0 0 0 3 10 6 3 3 3
26 26 32 39 39 35 35 39 32 29 26 26 26 26 26 26 29 29 29 26 23 19 19 23 26 26 29 32 29 29 19 3 0 0 0 0 0 3 3 6 3 3 3
23 23 29 32 32 35 35 39 32 29 29 29 26 23 23 23 26 26 26 26 19 16 19 19 23 23 23 26 26 29 23 0 0 0 0 0 3 6 6 6 3 3 3
19 23 26 29 23 26 29 26 23 19 23 26 26 26 23 23 16 19 23 23 23 19 19 16 19 19 19 23 23 23 10 0 0 0 0 0 3 6 6 3 6 0 6
19 23 19 16 13 19 16 19 16 13 6 13 16 10 16 13 13 13 16 16 19 19 16 16 13 16 13 13 23 10 3 0 0 0 0 0 3 6 6 6 6 3 6
16 16 19 16 13 13 10 6 6 3 3 3 3 0 0 0 3 6 6 6 10 10 13 16 13 10 3 3 0 0 0 0 0 0 0 0 3 3 6 6 6 3 6
13 13 16 16 16 10 10 6 6 3 3 0 0 0 0 0 3 6 6 0 6 3 6 10 13 6 3 0 0 0 0 0 0 0 0 0 3 6 3 3 6 6 6
6 10 10 10 13 13 13 6 10 3 3 0 0 0 0 0 0 3 3 0 0 0 0 0 3 3 0 0 0 0 0 0 0 0 0 0 3 6 6 3 6 6 6
6 6 10 10 10 13 13 10 6 6 3 0 0 0 0 0 0 0 3 3 0 0 0 0 0 0 0 0 0 0 0 0 0 0 0 0 3 6 6 10 3 6 3
3 3 3 6 10 13 10 6 10 3 0 0 0 0 0 0 0 0 0 0 0 0 0 0 0 0 0 0 0 0 0 0 0 0 0 0 0 3 6 13 10 13 6
3 3 3 3 6 6 10 6 6 3 0 0 0 0 0 0 0 0 0 0 0 0 0 0 0 0 0 0 0 0 0 0 0 0 0 0 0 0 6 10 10 10 13
3 3 3 3 6 3 6 6 3 3 3 0 0 0 0 0 0 0 0 0 0 0 0 0 0 0 0 0 0 0 0 0 0 0 0 0 0 0 0 6 10 13 13
3 3 3 3 3 0 3 3 3 3 3 3 0 0 0 0 0 0 0 0 0 0 0 0 0 0 0 0 0 0 0 0 0 0 0 0 0 0 0 0 3 6 13
0 3 0 0 0 0 0 3 3 3 0 0 0 0 0 0 0 0 0 0 0 0 0 0 0 0 0 0 0 0 0 0 0 0 0 0 0 0 0 0 0 0 0
0 0 0 0 0 0 0 0 3 3 3 0 0 0 0 0 0 0 0 0 0 0 0 0 0 0 0 0 0 0 0 0 0 0 0 0 0 0 0 0 0 0 0
0 0 0 0 0 0 0 0 3 3 0 0 0 0 0 0 0 0 0 0 0 0 0 0 0 0 0 0 0 0 0 0 0 0 0 0 0 0 0 0 0 0 0
0 0 0 0 0 0 0 0 0 3 0 0 0 0 0 0 0 0 0 0 0 0 0 0 0 0 0 0 0 0 0 0 0 0 0 0 0 0 0 0 0 0 0
0 0 0 0 0 0 0 0 0 0 0 0 0 0 0 0 0 0 0 0 0 0 0 0 0 0 0 0 0 0 0 0 0 0 0 0 0 0 0 0 0 0 0
0 0 0 0 0 0 0 0 0 0 0 0 0 0 0 0 0 0 0 0 0 0 0 0 0 0 0 0 0 0 0 0 0 0 0 0 0 0 0 0 0 0 0
0 0 0 0 0 0 0 0 0 0 0 0 0 0 0 0 0 0 0 0 0 0 0 0 0 0 0 0 0 0 0 0 0 0 0 0 0 0 0 0 0 0 0
0 0 0 0 0 0 0 0 0 0 0 0 0 0 0 0 0 0 0 0 0 0 0 0 0 0 0 0 0 0 0 0 0 0 0 0 0 0 0 0 0 0 0

GEFSSE_con_cape1000_228.txt.gz
Probability
29 48 61 61 65 68 68 68 65 65 68 68 61 61 58 58 58 52 55 55 52 52 45 39 39 29 23 16 10 10 6 6 6 3 3 0 3 3 3 0 0 0 0
32 48 61 61 61 58 65 61 58 58 61 61 58 58 58 55 55 48 52 52 45 45 45 42 45 35 16 13 10 6 6 3 3 3 6 0 6 3 0 0 0 0 0
35 48 58 58 58 58 58 58 58 55 55 61 58 58 55 48 48 42 35 42 35 39 39 39 39 35 23 16 16 6 6 3 3 3 3 0 0 3 0 0 0 0 0
45 48 48 55 58 58 58 55 55 52 52 52 48 45 39 42 39 35 29 29 26 29 32 32 32 29 23 26 16 13 10 3 3 3 0 0 0 0 3 3 0 0 0
35 45 48 55 55 55 52 48 48 42 39 39 39 39 39 32 32 29 29 23 19 23 26 29 23 26 26 23 19 16 10 6 3 0 0 0 0 0 3 6 6 6 0
29 32 45 52 52 52 52 45 45 42 39 39 35 35 32 32 29 29 29 23 19 19 19 19 19 23 23 26 19 19 16 10 3 0 0 0 0 0 6 6 10 6 10
26 35 39 48 48 48 45 42 42 32 32 32 29 29 29 29 29 29 32 29 16 19 19 16 16 19 23 23 19 19 23 6 0 0 0 0 0 3 0 6 3 3 6
23 29 35 39 42 39 39 39 32 29 26 26 26 26 29 26 26 26 26 23 16 16 16 19 16 16 16 19 19 19 19 0 0 0 0 0 0 0 0 6 6 3 6
19 23 29 29 35 42 42 39 32 32 32 32 26 26 23 19 26 26 26 23 16 16 13 16 16 19 16 10 16 16 3 0 0 0 0 0 0 0 3 3 3 3 6
16 16 16 19 19 19 19 19 26 26 26 29 26 23 19 19 19 19 19 19 19 16 16 13 13 16 13 10 10 3 0 0 0 0 0 0 0 3 10 10 10 6 6
13 16 13 13 13 13 13 16 16 16 16 13 10 10 6 3 10 10 10 10 13 10 10 13 10 10 10 6 0 0 0 0 0 0 0 0 0 6 6 13 13 10 3
13 10 10 13 13 10 3 3 3 3 3 0 0 0 0 0 0 3 0 0 3 6 10 10 10 10 6 0 0 0 0 0 0 0 0 0 0 6 6 10 16 13 6
10 10 6 10 3 0 0 0 0 3 3 0 0 0 0 0 0 0 0 0 0 0 0 3 6 3 0 0 0 0 0 0 0 0 0 0 0 10 10 13 10 13 10
6 6 6 3 0 0 0 0 0 0 3 3 0 0 0 0 0 0 0 0 0 0 0 0 0 0 0 0 0 0 0 0 0 0 0 0 0 3 10 10 10 10 13
6 10 3 3 0 0 0 0 0 0 0 3 0 0 0 0 0 0 0 0 0 0 0 0 0 0 0 0 0 0 0 0 0 0 0 0 0 0 3 6 10 10 6
6 6 3 6 0 0 0 0 0 0 0 0 0 0 0 0 0 0 0 0 0 0 0 0 0 0 0 0 0 0 0 0 0 0 0 0 0 0 3 6 10 10 10
3 3 0 0 0 0 0 0 0 0 0 0 0 0 0 0 0 0 0 0 0 0 0 0 0 0 0 0 0 0 0 0 0 0 0 0 0 0 0 0 6 10 10
3 0 0 0 3 0 0 0 0 0 0 0 0 0 0 0 0 0 0 0 0 0 0 0 0 0 0 0 0 0 0 0 0 0 0 0 0 0 0 0 0 6 3
3 0 0 0 0 3 0 0 0 0 0 0 0 0 0 0 0 0 0 0 0 0 0 0 0 0 0 0 0 0 0 0 0 0 0 0 0 0 0 0 0 0 0
0 0 0 0 0 0 3 0 0 0 0 0 0 0 0 0 0 0 0 0 0 0 0 0 0 0 0 0 0 0 0 0 0 0 0 0 0 0 0 0 0 0 0
0 0 0 0 0 0 0 3 0 0 0 0 0 0 0 0 0 0 0 0 0 0 0 0 0 0 0 0 0 0 0 0 0 0 0 0 0 0 0 0 0 0 0
0 0 0 0 0 0 0 0 3 3 0 0 0 0 0 0 0 0 0 0 0 0 0 0 0 0 0 0 0 0 0 0 0 0 0 0 0 0 0 0 0 0 0
0 0 0 0 0 0 0 0 0 0 0 0 0 0 0 0 0 0 0 0 0 0 0 0 0 0 0 0 0 0 0 0 0 0 0 0 0 0 0 0 0 0 0
0 0 0 0 0 0 0 0 0 0 0 3 0 0 0 0 0 0 0 0 0 0 0 0 0 0 0 0 0 0 0 0 0 0 0 0 0 0 0 0 0 0 0
0 0 0 0 0 0 0 0 0 0 0 0 0 0 0 0 0 0 0 0 0 0 0 0 0 0 0 0 0 0 0 0 0 0 0 0 0 0 0 0 0 0 0
0 0 0 0 0 0 0 0 0 0 0 0 0 0 0 0 0 0 0 0 0 0 0 0 0 0 0 0 0 0 0 0 0 0 0 0 0 0 0 0 0 0 0

GEFSSE_con_cape1000_234.txt.gz
Probability
6 19 55 65 65 65 65 61 58 61 61 58 61 58 58 58 58 52 48 48 45 45 42 32 32 26 23 19 10 6 3 3 3 6 6 3 3 0 0 0 0 0 0
6 32 58 65 65 65 68 61 58 58 58 55 55 55 55 52 52 48 45 45 42 45 42 42 32 23 13 13 6 6 6 3 0 0 0 6 3 0 0 0 0 0 0
26 35 58 65 61 61 58 61 58 55 52 52 52 48 48 48 48 45 39 39 35 35 35 35 32 23 13 6 3 0 0 0 0 0 0 0 0 0 0 0 0 0 0
32 35 58 65 61 61 58 58 58 58 52 52 48 55 52 45 45 42 35 29 26 26 26 29 23 19 16 10 6 3 0 0 0 0 0 0 0 0 0 0 0 0 0
32 39 52 61 61 58 55 55 52 52 48 45 45 45 39 32 32 32 32 26 26 23 23 23 23 19 16 16 10 3 3 3 0 0 0 0 0 0 0 0 0 0 3
29 42 45 58 55 55 55 55 55 52 45 45 39 35 39 35 29 29 26 26 23 26 23 23 19 19 19 13 13 10 6 6 0 0 0 0 0 3 0 0 3 3 0
29 42 48 55 52 52 52 55 52 48 45 39 39 35 32 35 29 32 29 29 26 23 19 23 19 19 19 16 13 13 10 3 0 0 0 0 0 0 0 0 0 3 0
26 32 42 52 52 52 48 48 45 42 39 35 35 35 32 32 26 26 29 26 23 19 19 19 16 13 16 16 16 13 0 0 0 0 0 0 0 0 0 0 3 3 3
19 26 26 29 35 39 42 39 35 35 32 29 32 32 32 29 29 26 23 19 16 6 10 19 13 16 13 13 13 10 0 0 0 0 0 0 0 3 3 3 6 6 6
19 19 19 19 23 26 23 26 26 29 29 32 29 19 16 19 23 19 19 19 19 16 10 6 13 10 10 6 6 3 0 0 0 0 0 0 0 3 3 13 10 6 6
13 13 16 16 16 10 10 13 10 10 10 10 10 10 3 0 0 3 10 6 16 13 10 6 3 6 6 6 3 0 0 0 0 0 0 0 0 3 6 10 13 6 10
13 13 13 13 10 10 10 6 0 3 0 0 0 0 0 0 0 0 0 0 0 3 10 10 6 6 3 0 0 0 0 0 0 0 0 0 0 3 6 10 10 10 13
10 10 13 13 6 3 3 3 0 0 0 0 0 0 0 0 0 0 0 0 0 0 0 0 3 0 0 0 0 0 0 0 0 0 0 0 0 0 6 10 10 10 10
6 10 13 10 3 0 0 0 0 0 0 0 0 0 0 0 0 0 0 0 0 0 0 0 0 0 0 0 0 0 0 0 0 0 0 0 0 0 3 6 10 10 6
6 6 6 0 0 0 0 0 0 0 0 0 0 0 0 0 0 0 0 0 0 0 0 0 0 0 0 0 0 0 0 0 0 0 0 0 0 0 0 6 6 10 0
3 6 6 3 0 0 0 0 0 0 0 0 0 0 0 0 0 0 0 0 0 0 0 0 0 0 0 0 0 0 0 0 0 0 0 0 0 0 0 0 6 6 10
3 6 3 3 0 0 0 0 0 0 0 0 0 0 0 0 0 0 0 0 0 0 0 0 0 0 0 0 0 0 0 0 0 0 0 0 0 0 0 0 0 6 6
6 0 3 3 0 0 0 0 0 0 0 0 0 0 0 0 0 0 0 0 0 0 0 0 0 0 0 0 0 0 0 0 0 0 0 0 0 0 0 0 0 0 0
6 3 3 3 0 0 0 0 0 0 0 0 0 0 0 0 0 0 0 0 0 0 0 0 0 0 0 0 0 0 0 0 0 0 0 0 0 0 0 0 0 0 0
3 3 3 3 0 0 0 0 0 0 0 0 0 0 0 0 0 0 0 0 0 0 0 0 0 0 0 0 0 0 0 0 0 0 0 0 0 0 0 0 0 0 0
0 3 3 3 0 0 0 0 0 0 0 0 0 0 0 0 0 0 0 0 0 0 0 0 0 0 0 0 0 0 0 0 0 0 0 0 0 0 0 0 0 0 0
3 3 3 3 0 0 0 0 0 0 0 0 0 0 0 0 0 0 0 0 0 0 0 0 0 0 0 0 0 0 0 0 0 0 0 0 0 0 0 0 0 0 0
3 3 3 3 0 0 0 0 0 0 0 0 0 0 0 0 0 0 0 0 0 0 0 0 0 0 0 0 0 0 0 0 0 0 0 0 0 0 0 0 0 0 0
3 3 3 0 0 0 0 0 0 0 0 0 0 0 0 0 0 0 0 0 0 0 0 0 0 0 0 0 0 0 0 0 0 0 0 0 0 0 0 0 0 0 0
3 3 3 0 0 0 0 0 0 0 0 0 0 0 0 0 0 0 0 0 0 0 0 0 0 0 0 0 0 0 0 0 0 0 0 0 0 0 0 0 0 0 0
0 0 3 0 0 0 0 0 0 0 0 0 0 0 0 0 0 0 0 0 0 0 0 0 0 0 0 0 0 0 0 0 0 0 0 0 0 0 0 0 0 0 0

GEFSSE_con_cape1000_240.txt.gz
Probability
23 48 61 71 65 71 65 61 58 65 65 61 65 61 61 58 58 52 52 45 42 42 42 35 26 16 13 16 16 19 16 6 10 10 10 3 0 0 0 0 0 0 0
29 45 65 68 65 68 61 61 61 61 61 65 55 58 48 48 48 45 48 42 42 45 39 35 29 19 10 13 10 10 10 3 0 3 6 3 0 0 0 0 0 0 0
35 52 61 68 65 65 61 61 61 61 58 58 58 48 48 48 48 48 45 42 35 35 32 26 23 16 13 13 6 3 3 3 0 0 0 0 0 0 0 0 0 3 3
35 55 55 68 68 65 58 58 58 58 58 52 48 48 48 48 48 48 35 23 23 26 26 19 13 10 6 10 3 3 3 3 3 0 0 0 0 0 0 0 0 0 0
39 55 61 61 65 55 55 52 48 48 48 45 45 42 39 39 39 35 29 26 29 26 26 19 13 10 3 10 10 3 3 3 3 0 0 0 0 0 0 0 0 0 0
45 52 55 55 55 55 52 52 52 52 48 52 48 45 39 32 32 29 29 26 26 26 23 19 19 13 13 10 6 3 6 6 0 0 0 0 0 0 0 0 3 0 0
48 52 55 52 52 52 55 55 55 52 48 48 45 39 35 32 32 35 32 26 26 19 19 16 16 16 16 10 6 6 3 3 0 3 3 3 0 0 0 0 3 0 3
48 48 48 52 55 52 48 52 55 55 48 39 42 39 35 35 32 32 32 29 23 19 19 16 13 10 10 6 6 10 6 0 0 0 3 3 3 3 0 0 3 6 3
48 48 45 42 45 48 48 45 45 45 42 39 42 42 35 35 32 32 29 29 29 23 19 16 16 16 10 10 10 6 0 0 0 0 0 3 3 3 3 3 3 6 6
35 35 39 39 39 42 35 29 29 29 26 26 23 26 23 23 23 23 19 19 16 19 10 13 6 6 6 6 6 0 0 0 0 0 0 0 3 6 6 6 6 6 10
32 32 35 39 39 32 29 23 23 19 19 19 16 10 13 16 16 13 3 0 13 16 3 3 0 3 3 3 3 0 0 0 0 0 0 0 0 0 0 3 3 10 6
32 29 35 35 29 29 19 23 26 19 19 16 16 16 13 6 6 6 0 0 3 3 6 3 0 0 0 3 0 0 0 0 0 0 0 0 0 0 0 3 6 10 10
23 16 26 23 23 23 23 19 19 23 19 13 10 6 13 10 6 6 13 13 10 3 6 3 3 6 0 0 3 3 3 0 0 0 0 0 0 0 3 0 3 10 6
16 16 16 19 19 23 23 13 10 13 10 6 6 6 6 3 3 3 3 3 10 10 13 16 16 10 6 3 3 0 3 3 3 6 3 0 0 0 0 0 3 10 13
13 10 10 13 13 16 13 13 10 10 10 6 6 6 3 0 3 3 3 3 3 3 6 10 13 10 6 6 0 0 3 0 3 3 3 0 0 0 3 6 10 10 6
13 10 10 10 10 6 10 13 10 6 6 10 10 6 3 0 0 0 0 3 0 0 0 0 0 0 0 0 0 0 0 0 0 0 3 0 0 0 0 0 6 6 10
10 10 10 6 6 6 6 6 6 3 6 6 6 6 0 0 0 0 0 0 0 0 0 0 0 0 0 0 0 0 0 0 0 0 0 0 0 0 0 0 0 0 3
10 10 6 6 6 6 6 6 6 6 3 6 0 0 0 0 0 0 0 0 0 0 0 0 0 0 0 0 0 0 0 0 0 0 0 0 0 0 0 0 0 0 0
10 6 6 6 6 6 6 6 6 6 6 0 0 0 0 0 0 0 0 0 0 0 0 0 0 0 0 0 0 0 0 0 0 0 0 0 0 0 0 0 0 0 0
10 6 6 6 6 6 3 3 3 0 0 3 3 0 0 0 0 0 0 0 0 0 0 0 0 0 0 0 0 0 0 0 0 0 0 0 0 0 0 0 0 0 0
6 6 6 6 3 3 0 0 0 0 0 0 0 0 0 0 0 0 0 0 0 0 0 0 0 0 0 0 0 0 0 0 0 0 0 0 0 0 0 0 0 0 0
3 6 6 6 3 0 0 0 0 0 0 0 0 0 0 0 0 0 0 0 0 0 0 0 0 0 0 0 0 0 0 0 0 0 0 0 0 0 0 0 0 0 0
3 3 3 3 3 3 0 3 0 0 0 0 0 0 0 0 0 0 0 0 0 0 0 0 0 0 0 0 0 0 0 0 0 0 0 0 0 0 0 0 0 0 0
3 3 3 3 3 3 0 0 0 0 0 0 0 0 0 0 0 0 0 0 0 0 0 0 0 0 0 0 0 0 0 0 0 0 0 0 0 0 0 0 0 0 0
0 3 3 3 3 0 0 0 0 0 0 0 0 0 0 0 0 0 0 0 0 0 0 0 0 0 0 0 0 0 0 0 0 0 0 0 0 0 0 0 0 0 0
0 3 3 3 3 0 0 0 0 0 0 0 0 0 0 0 0 0 0 0 0 0 0 0 0 0 0 0 0 0 0 0 0 0 0 0 0 0 0 0 0 0 0

GEFSSE_con_cape1000_246.txt.gz
Probability
55 58 74 74 74 71 71 74 68 68 68 58 55 58 52 48 52 52 48 48 42 42 32 29 19 16 16 16 13 13 10 10 3 6 6 0 3 3 0 0 0 0 3
58 58 74 74 74 71 71 71 65 61 65 55 52 55 48 45 48 48 45 42 42 39 32 26 16 19 16 13 13 13 10 3 3 3 0 0 0 0 0 0 0 0 3
61 55 68 74 71 71 68 58 55 61 61 61 55 52 52 48 45 42 42 39 42 39 32 23 16 6 13 6 6 3 3 3 3 0 0 0 0 0 0 0 0 0 3
61 58 61 74 71 68 65 58 52 55 61 58 55 52 52 52 48 45 39 35 35 32 26 13 10 10 6 10 6 3 3 3 3 0 0 0 0 0 0 0 0 0 3
45 52 65 77 71 71 68 61 58 58 58 55 48 45 45 45 42 35 26 26 19 23 23 19 16 6 3 6 10 6 3 3 3 3 0 0 0 0 0 0 0 0 0
42 48 58 71 71 65 61 61 58 61 48 48 45 45 39 39 35 29 26 23 23 19 16 19 13 3 3 3 6 6 3 3 0 0 0 0 0 3 0 0 0 0 0
48 48 52 65 52 48 52 55 55 55 52 48 45 42 42 32 29 29 26 26 23 19 16 16 13 10 3 3 3 6 6 3 0 0 0 0 0 6 6 0 0 0 0
48 45 42 48 52 52 48 52 52 52 52 52 48 42 35 35 35 32 26 29 26 23 19 16 16 6 3 3 0 3 3 0 0 0 0 0 6 10 6 6 3 0 0
48 45 35 39 39 39 45 45 45 48 45 42 42 35 35 35 32 35 32 29 29 26 23 19 13 10 3 3 0 3 3 0 0 0 0 0 0 0 0 0 3 3 3
45 42 35 32 32 32 32 35 32 32 32 35 32 29 29 26 29 29 23 23 23 23 19 16 16 6 6 3 0 0 0 0 0 0 0 0 0 0 0 0 0 6 3
42 39 42 35 35 26 23 26 16 23 19 19 16 16 10 10 10 10 0 3 16 19 16 13 13 10 3 0 3 0 0 0 0 0 0 0 3 3 3 3 6 6 6
29 35 35 35 26 23 19 16 16 16 16 16 10 3 3 6 3 3 0 0 0 3 3 3 6 6 0 0 0 0 0 0 0 0 0 0 3 3 0 0 6 6 6
26 23 29 26 23 23 19 19 16 16 16 10 10 6 3 3 3 3 0 0 0 0 0 0 0 0 0 3 0 0 0 0 0 0 0 0 0 3 3 3 6 6 6
23 26 16 19 16 13 13 16 13 13 6 3 3 0 0 0 3 0 0 0 0 0 0 0 0 0 0 0 0 0 0 0 0 0 0 0 0 0 3 6 10 13 10
23 19 13 10 10 10 10 10 6 6 6 3 0 0 0 0 0 0 0 0 0 0 0 0 0 0 0 0 0 0 0 0 0 0 0 0 0 3 3 6 6 13 13
16 16 13 13 10 10 10 10 6 3 0 0 0 0 0 0 0 0 0 0 0 0 0 0 0 0 0 0 0 0 0 0 0 0 0 0 0 0 0 3 3 6 6
13 13 13 13 13 10 6 6 3 3 3 3 0 0 0 0 0 0 0 0 0 0 0 0 0 0 0 0 0 0 0 0 0 0 0 0 0 0 0 0 0 3 3
10 13 13 10 10 10 3 3 3 3 3 0 0 0 0 0 0 0 0 0 0 0 0 0 0 0 0 0 0 0 0 0 0 0 0 0 0 0 0 0 0 0 3
10 10 10 10 6 6 6 6 3 3 3 0 0 0 0 0 0 0 0 0 0 0 0 0 0 0 0 0 0 0 0 0 0 0 0 0 0 0 0 0 0 0 0
6 10 10 6 6 6 6 6 3 3 0 0 0 0 0 0 0 0 0 0 0 0 0 0 0 0 0 0 0 0 0 0 0 0 0 0 0 0 0 0 0 0 0
6 6 6 6 3 3 3 3 0 0 0 0 0 0 0 0 0 0 0 0 0 0 0 0 0 0 0 0 0 0 0 0 0 0 0 0 0 0 0 0 0 0 0
6 6 6 3 3 3 3 0 0 0 0 0 0 0 0 0 0 0 0 0 0 0 0 0 0 0 0 0 0 0 0 0 0 0 0 0 0 0 0 0 0 0 0
6 6 6 6 3 3 3 0 0 0 0 0 0 0 0 0 0 0 0 0 0 0 0 0 0 0 0 0 0 0 0 0 0 0 0 0 0 0 0 0 0 0 0
6 6 3 6 3 3 0 0 0 0 0 0 0 0 0 0 0 0 0 0 0 0 0 0 0 0 0 0 0 0 0 0 0 0 0 0 0 0 0 0 0 0 0
6 6 3 6 3 0 0 0 0 0 0 0 0 0 0 0 0 0 0 0 0 0 0 0 0 0 0 0 0 0 0 0 0 0 0 0 0 0 0 0 0 0 0
0 3 3 0 3 0 0 0 0 0 0 0 0 0 0 0 0 0 0 0 0 0 0 0 0 0 0 0 0 0 0 0 0 0 0 0 0 0 0 0 0 0 0

GEFSSE_con_cape1000_252.txt.gz
Probability
39 65 77 74 74 74 71 71 68 65 65 58 55 58 55 48 45 48 48 42 42 32 26 26 32 26 19 13 13 6 6 3 3 0 0 0 0 0 0 0 3 3 6
42 65 77 77 74 71 74 68 61 65 65 61 55 52 48 48 48 42 42 42 35 29 26 23 23 19 19 19 13 6 3 0 0 0 0 0 0 0 0 0 6 0 6
52 65 77 81 74 74 71 65 65 65 58 58 55 55 52 42 45 45 39 39 35 29 29 29 10 13 6 3 3 3 3 3 0 0 0 0 0 0 0 6 3 3 3
55 55 65 74 74 74 68 61 61 55 55 52 52 52 52 52 42 45 45 39 32 23 23 16 10 10 6 6 6 3 3 3 3 3 0 0 0 0 0 0 0 3 3
52 55 68 74 74 71 65 61 61 55 55 52 52 48 42 42 35 29 32 32 29 23 23 16 10 10 6 6 10 6 6 3 3 0 0 0 0 0 0 0 0 0 0
48 55 68 71 71 68 65 65 65 55 52 52 48 45 45 42 35 29 23 23 23 19 13 16 6 6 3 10 10 10 3 6 3 0 0 0 0 0 0 0 0 0 0
45 55 61 71 68 68 61 61 65 61 58 52 48 42 39 35 32 26 23 19 23 23 16 6 3 3 6 6 6 10 0 0 0 0 0 0 0 3 0 0 0 0 0
42 52 55 68 68 61 61 61 61 55 48 42 39 42 42 32 29 29 23 23 23 26 23 13 10 6 6 3 0 0 3 0 0 0 0 0 0 3 0 0 0 0 0
39 42 45 45 48 55 55 55 52 48 45 42 42 39 39 35 29 26 26 19 23 23 23 19 13 10 6 3 0 0 0 0 0 0 0 0 0 3 3 3 0 0 3
29 32 32 35 35 39 35 42 42 42 42 39 39 32 23 26 29 26 23 23 23 16 19 23 16 10 10 6 3 0 0 0 0 0 0 0 3 6 3 6 3 3 3
26 26 26 29 29 26 26 32 26 26 29 29 19 13 10 6 10 10 13 16 23 19 13 6 6 6 3 3 0 0 0 0 0 0 0 0 0 0 0 0 6 3 3
23 26 23 23 23 19 19 13 10 16 13 13 10 6 3 3 0 0 0 0 6 3 3 6 3 3 3 0 0 0 0 0 0 0 0 0 0 0 0 6 10 6 6
23 23 23 19 19 13 10 10 10 6 3 3 3 3 3 0 0 0 0 0 0 0 0 0 0 0 0 0 0 0 0 0 0 0 0 0 0 3 3 6 3 13 10
19 23 10 13 10 6 6 6 3 3 3 3 3 3 0 0 0 0 0 0 0 0 0 0 0 0 0 0 0 0 0 0 0 0 0 0 0 0 0 3 6 6 6
13 16 6 6 6 6 6 3 3 3 3 3 3 0 0 0 0 0 0 0 0 0 0 0 0 0 0 0 0 0 0 0 0 0 0 0 0 0 0 3 3 3 0
13 13 10 6 6 6 3 3 3 3 3 3 0 0 0 0 0 0 0 0 0 0 0 0 0 0 0 0 0 0 0 0 0 0 0 0 0 0 0 0 0 0 0
10 13 10 6 6 3 3 3 3 3 3 0 0 0 0 0 0 0 0 0 0 0 0 0 0 0 0 0 0 0 0 0 0 0 0 0 0 0 0 0 0 0 0
10 10 6 6 3 3 3 3 3 3 0 0 0 0 0 0 0 0 0 0 0 0 0 0 0 0 0 0 0 0 0 0 0 0 0 0 0 0 0 0 0 0 0
6 10 6 6 3 3 0 0 3 0 0 0 0 0 0 0 0 0 0 0 0 0 0 0 0 0 0 0 0 0 0 0 0 0 0 0 0 0 0 0 0 0 0
3 6 3 0 0 0 0 0 0 0 0 0 0 0 0 0 0 0 0 0 0 0 0 0 0 0 0 0 0 0 0 0 0 0 0 0 0 0 0 0 0 0 0
3 0 3 0 0 0 0 0 0 0 0 0 0 0 0 0 0 0 0 0 0 0 0 0 0 0 0 0 0 0 0 0 0 0 0 0 0 0 0 0 0 0 0
3 3 0 0 0 0 0 0 0 0 0 0 0 0 0 0 0 0 0 0 0 0 0 0 0 0 0 0 0 0 0 0 0 0 0 0 0 0 0 0 0 0 0
0 0 3 3 0 0 0 0 0 0 0 0 0 0 0 0 0 0 0 0 0 0 0 0 0 0 0 0 0 0 0 0 0 0 0 0 0 0 0 0 0 0 0
0 0 3 3 3 0 0 0 0 0 0 0 0 0 0 0 0 0 0 0 0 0 0 0 0 0 0 0 0 0 0 0 0 0 0 0 0 0 0 0 0 0 0
0 0 3 3 0 0 0 0 0 0 0 0 0 0 0 0 0 0 0 0 0 0 0 0 0 0 0 0 0 0 0 0 0 0 0 0 0 0 0 0 0 0 0
0 0 3 0 0 0 0 0 0 0 0 0 0 0 0 0 0 0 0 0 0 0 0 0 0 0 0 0 0 0 0 0 0 0 0 0 0 0 0 0 0 0 0

GEFSSE_con_cape1000_258.txt.gz
Probability
6 39 77 77 77 74 71 68 68 68 61 55 52 52 45 45 39 39 32 29 29 35 39 32 23 19 19 19 10 6 6 0 3 0 0 0 0 3 3 3 0 3 3
16 52 81 77 77 71 71 68 65 68 55 52 52 48 45 45 39 35 35 32 32 32 29 23 23 23 23 19 6 0 0 0 0 0 0 0 0 3 3 3 3 3 3
35 65 74 74 77 71 68 68 71 65 61 52 52 48 45 39 39 39 35 35 29 26 26 19 19 19 13 6 3 3 0 0 0 0 0 0 0 0 0 3 3 3 0
42 55 61 71 68 68 71 65 68 58 52 48 52 48 48 42 42 39 32 29 23 19 19 23 16 13 6 3 3 3 3 0 0 0 0 0 0 0 0 0 0 0 0
45 55 65 71 71 65 65 61 61 58 52 52 48 48 42 35 35 29 29 29 19 23 13 23 19 10 10 10 6 3 3 3 3 0 0 0 0 0 0 0 0 0 0
39 52 58 71 68 68 61 55 52 55 52 48 42 45 39 32 35 35 32 23 19 16 10 10 10 10 6 6 6 3 3 3 3 0 0 0 0 0 0 0 0 0 0
39 52 58 65 65 68 58 55 52 52 52 48 42 39 35 42 32 35 26 26 19 19 10 13 10 10 10 3 3 3 3 3 0 0 0 0 0 0 0 0 0 0 0
45 55 58 65 65 65 61 55 48 48 42 39 45 35 32 35 32 29 26 26 23 19 13 13 10 10 10 3 3 3 3 0 0 0 0 0 0 0 0 3 3 0 0
52 55 55 55 55 65 58 52 45 45 48 42 35 32 32 32 29 23 23 19 16 16 19 10 6 6 6 6 6 3 0 0 0 0 0 0 0 0 3 3 3 0 0
52 48 52 39 39 35 42 45 39 39 39 39 39 23 16 19 23 23 19 19 19 19 16 10 3 3 3 3 0 0 0 0 0 0 0 0 0 3 3 3 3 0 0
42 42 35 29 29 26 23 32 35 35 32 26 16 16 13 6 3 6 6 10 16 13 13 13 10 6 0 0 0 0 0 0 0 0 0 0 0 0 3 3 6 6 3
39 35 29 23 19 19 23 16 16 16 10 10 10 6 6 6 3 3 0 0 6 6 3 6 6 0 0 0 0 0 0 0 0 0 0 0 0 0 0 0 6 6 6
29 26 23 16 13 16 13 10 10 10 10 6 3 3 3 0 0 0 0 0 0 0 0 0 0 0 0 0 0 0 0 0 0 0 0 0 0 0 0 0 3 0 3
23 19 23 16 10 10 6 10 6 6 6 6 3 3 3 0 0 0 0 0 0 0 0 0 0 0 0 0 0 0 0 0 0 0 0 0 0 0 0 0 0 3 3
16 19 19 19 10 10 6 6 6 6 6 3 3 3 0 0 0 0 0 0 0 0 0 0 0 0 0 0 0 0 0 0 0 0 0 0 0 0 0 0 0 0 0
19 19 13 19 13 6 6 6 6 6 6 3 3 3 0 0 0 0 0 0 0 0 0 0 0 0 0 0 0 0 0 0 0 0 0 0 0 0 0 0 0 0 0
16 13 13 13 6 6 6 6 6 6 3 3 3 0 0 0 0 0 0 0 0 0 0 0 0 0 0 0 0 0 0 0 0 0 0 0 0 0 0 0 0 0 0
16 13 13 13 6 6 6 6 6 3 3 3 3 0 0 0 0 0 0 0 0 0 0 0 0 0 0 0 0 0 0 0 0 0 0 0 0 0 0 0 0 0 0
10 13 13 10 6 6 6 6 3 3 3 3 3 0 0 0 0 0 0 0 0 0 0 0 0 0 0 0 0 0 0 0 0 0 0 0 0 0 0 0 0 0 0
3 6 13 10 6 6 6 3 3 3 3 3 0 0 0 0 0 0 0 0 0 0 0 0 0 0 0 0 0 0 0 0 0 0 0 0 0 0 0 0 0 0 0
0 6 6 3 6 3 3 3 3 3 3 0 0 0 0 0 0 0 0 0 0 0 0 0 0 0 0 0 0 0 0 0 0 0 0 0 0 0 0 0 0 0 0
0 0 3 0 3 3 3 0 0 0 0 0 0 0 0 0 0 0 0 0 0 0 0 0 0 0 0 0 0 0 0 0 0 0 0 0 0 0 0 0 0 0 0
0 0 0 0 3 3 0 0 0 0 0 0 0 0 0 0 0 0 0 0 0 0 0 0 0 0 0 0 0 0 0 0 0 0 0 0 0 0 0 0 0 0 0
0 0 0 0 0 0 0 0 0 0 0 0 0 0 0 0 0 0 0 0 0 0 0 0 0 0 0 0 0 0 0 0 0 0 0 0 0 0 0 0 0 0 0
0 0 0 0 0 0 0 0 0 0 0 0 0 0 0 0 0 0 0 0 0 0 0 0 0 0 0 0 0 0 0 0 0 0 0 0 0 0 0 0 0 0 0
0 0 0 0 0 0 0 0 0 0 0 0 0 0 0 0 0 0 0 0 0 0 0 0 0 0 0 0 0 0 0 0 0 0 0 0 0 0 0 0 0 0 0

GEFSSE_con_cape1000_264.txt.gz
Probability
45 58 68 74 74 71 74 68 65 61 68 65 58 58 52 52 39 39 42 42 35 29 23 23 23 19 16 16 16 3 3 6 6 0 3 6 3 3 3 3 3 0 0
52 58 74 77 77 77 74 68 71 65 61 58 61 55 52 48 42 35 42 39 32 32 26 26 26 23 16 6 6 0 0 6 3 3 3 3 3 0 0 3 3 0 0
58 58 71 74 74 71 68 71 71 61 61 55 52 52 52 45 42 39 35 32 32 26 23 19 19 16 13 3 3 0 0 0 3 3 0 0 0 0 0 3 0 0 0
58 58 55 71 71 71 68 68 61 48 48 48 45 45 48 48 42 35 35 35 32 23 13 16 13 10 3 3 3 3 3 3 3 3 0 0 0 0 0 0 0 0 0
55 55 65 74 71 71 71 65 61 48 48 48 45 42 42 35 39 29 29 29 26 19 16 10 10 6 3 3 3 3 3 3 3 0 0 0 0 0 0 0 0 0 0
65 61 65 74 71 71 68 65 55 48 48 48 48 52 39 32 32 29 26 29 19 16 13 10 10 3 3 3 3 3 3 3 0 0 0 0 0 0 0 0 0 0 0
58 61 61 71 68 65 65 58 52 48 45 45 45 42 29 29 35 29 29 26 16 16 13 6 6 3 3 3 3 3 6 3 0 0 0 0 0 0 0 0 0 0 0
55 55 58 58 61 65 58 55 48 52 42 45 39 35 32 29 23 19 19 16 13 6 10 6 6 6 3 3 3 3 3 3 0 0 0 0 0 0 0 0 0 0 0
55 52 52 52 52 55 55 55 52 52 45 35 35 29 26 26 26 19 13 10 6 6 10 10 6 6 6 3 3 3 3 0 0 0 0 0 3 0 0 0 0 0 0
52 52 48 52 45 48 48 45 45 42 39 32 29 26 19 19 23 19 13 13 10 10 3 3 6 3 6 6 6 0 0 0 0 0 0 3 3 3 3 0 0 0 0
52 55 52 48 45 42 42 32 29 29 26 23 16 16 16 16 13 6 6 3 3 3 3 3 3 0 0 0 0 0 0 0 0 0 3 3 3 3 3 3 3 3 0
45 48 48 45 48 42 35 39 32 26 23 19 23 19 19 19 10 6 0 0 0 0 0 0 0 0 0 0 0 0 0 0 0 0 0 0 3 3 3 0 3 3 3
45 42 39 39 45 35 32 35 35 26 26 23 23 23 16 16 13 10 6 0 3 0 0 0 0 0 0 0 0 0 0 0 0 0 0 0 0 3 3 3 3 3 3
45 42 42 39 35 32 29 32 32 29 29 23 23 19 19 16 10 6 6 3 3 0 0 0 0 0 0 0 0 0 0 0 0 0 0 0 0 0 0 3 3 3 3
32 26 35 29 29 29 29 26 23 23 26 23 19 16 10 10 10 6 3 6 0 0 0 0 0 0 0 0 0 0 0 0 0 0 0 0 0 0 0 0 3 3 3
23 26 32 26 29 29 26 26 19 16 13 6 10 6 6 10 6 6 3 6 3 0 0 0 0 0 0 0 0 0 0 0 0 0 0 0 0 0 3 0 3 3 3
16 16 16 19 23 23 23 23 19 16 13 10 6 6 3 3 3 0 3 3 3 3 3 3 0 0 0 0 0 0 0 0 0 0 0 0 0 0 0 0 0 0 3
16 13 13 16 19 23 23 23 16 13 13 10 3 3 3 3 3 0 0 0 0 0 0 0 0 0 0 0 0 0 0 0 0 0 0 0 0 0 0 0 0 0 0
13 10 13 16 16 19 23 16 13 10 10 6 3 3 3 0 0 0 0 0 0 0 0 0 0 0 0 0 0 0 0 0 0 0 0 0 0 0 0 0 0 0 0
13 13 10 16 16 10 10 13 13 13 6 6 6 3 3 0 0 0 0 0 0 0 0 0 0 0 0 0 0 0 0 0 0 0 0 0 0 0 0 0 0 0 0
16 13 10 13 13 6 6 6 6 3 3 6 3 3 3 0 0 0 0 0 0 0 0 0 0 0 0 0 0 0 0 0 0 0 0 0 0 0 0 0 0 0 0
10 13 13 6 10 6 6 3 3 3 0 3 3 3 0 0 0 0 0 0 0 0 0 0 0 0 0 0 0 0 0 0 0 0 0 0 0 0 0 0 0 0 0
10 10 10 10 6 10 6 10 0 0 0 0 3 3 0 0 0 0 0 0 0 0 0 0 0 0 0 0 0 0 0 0 0 0 0 0 0 0 0 0 0 0 0
3 6 6 6 6 6 6 3 0 0 0 0 3 3 0 0 0 0 0 0 0 0 0 0 0 0 0 0 0 0 0 0 0 0 0 0 0 0 0 0 0 0 0
0 0 6 6 6 3 3 0 0 0 0 0 0 0 0 0 0 0 0 0 0 0 0 0 0 0 0 0 0 0 0 0 0 0 0 0 0 0 0 0 0 0 0
0 0 0 0 0 0 0 0 0 0 0 0 0 0 0 0 0 0 0 0 0 0 0 0 0 0 0 0 0 0 0 0 0 0 0 0 0 0 0 0 0 0 0

GEFSSE_con_cape1000_270.txt.gz
Probability
61 65 77 74 71 71 68 68 65 74 68 68 65 55 58 52 52 52 39 32 29 29 29 29 16 13 10 13 6 6 6 10 10 6 10 3 3 0 0 3 0 0 3
61 65 71 74 74 71 71 68 65 65 61 58 61 55 52 55 55 55 35 32 32 26 26 23 19 16 10 6 3 3 3 10 6 3 6 0 0 0 0 0 0 0 3
58 61 71 71 71 74 74 74 65 65 58 58 61 61 68 61 58 42 32 35 39 26 16 16 13 13 6 3 0 3 3 3 3 3 0 0 0 0 0 0 0 0 3
48 52 61 74 74 74 71 74 68 61 58 61 61 58 52 55 48 39 32 29 26 19 13 16 13 13 3 3 3 3 0 3 3 3 0 0 0 0 0 0 0 0 0
48 52 68 74 74 74 74 74 68 61 55 55 52 52 52 48 42 35 29 26 23 19 16 13 10 3 3 3 3 3 3 3 3 3 0 0 0 0 0 0 0 0 0
52 52 68 71 71 71 71 65 52 52 48 45 45 45 45 42 35 29 26 23 19 13 16 13 10 3 3 3 3 3 3 3 3 0 0 0 0 0 0 0 0 0 0
45 42 61 71 68 68 65 58 52 52 45 45 45 32 32 35 29 23 19 16 10 10 10 6 3 3 3 3 3 3 3 3 0 0 0 0 0 0 0 0 0 0 0
48 48 52 65 65 65 61 58 52 48 45 45 35 32 29 29 19 13 16 10 6 6 6 6 3 3 3 3 3 3 3 3 0 0 0 0 0 0 0 0 0 0 0
48 48 52 55 55 58 55 55 45 45 39 29 29 29 26 26 23 13 13 10 13 3 3 6 6 3 3 3 3 3 3 0 0 0 0 0 0 0 0 0 0 0 0
45 48 45 45 45 45 42 39 29 32 32 29 26 23 19 19 19 13 10 10 6 3 3 3 3 6 6 3 3 3 0 0 0 0 0 0 3 0 0 0 0 0 0
39 35 39 42 39 39 35 32 29 26 26 19 19 10 6 6 3 0 0 0 0 0 0 0 0 0 0 0 3 3 0 0 0 0 0 0 3 3 3 0 3 3 0
32 32 35 32 35 29 32 29 32 26 13 10 6 0 0 0 0 0 0 0 0 0 0 0 0 0 0 0 0 0 0 0 0 0 0 0 3 3 3 3 3 3 3
32 32 35 32 32 26 19 29 29 19 16 10 3 0 0 0 0 0 0 0 0 0 0 0 0 0 0 0 0 0 0 0 0 0 0 0 3 3 3 3 3 3 3
32 32 29 29 29 26 19 19 19 13 13 6 3 3 0 0 0 0 0 0 0 0 0 0 0 0 0 0 0 0 0 0 0 0 0 0 3 6 6 6 3 3 3
23 26 23 29 23 23 19 19 13 16 13 10 10 6 3 0 0 0 0 0 0 0 0 0 0 0 0 0 0 0 0 0 0 0 0 0 0 3 6 6 6 3 3
23 19 19 16 19 19 19 16 13 13 13 10 10 3 0 0 0 0 0 0 0 0 0 0 0 0 0 0 0 0 0 0 0 0 0 0 0 0 3 3 6 6 6
16 13 13 13 19 19 19 10 10 6 16 13 3 3 0 0 0 0 0 0 0 0 0 0 0 0 0 0 0 0 0 0 0 0 0 0 0 0 0 0 0 6 6
10 13 10 13 16 13 16 10 10 3 10 6 0 0 0 0 0 0 0 0 0 0 0 0 0 0 0 0 0 0 0 0 0 0 0 0 0 0 0 0 0 6 6
6 10 10 10 13 10 13 6 3 3 3 3 0 0 0 0 0 0 0 0 0 0 0 0 0 0 0 0 0 0 0 0 0 0 0 0 0 0 0 0 0 0 3
6 6 10 10 10 10 6 3 3 3 0 0 0 0 0 0 0 0 0 0 0 0 0 0 0 0 0 0 0 0 0 0 0 0 0 0 0 0 0 0 0 0 3
3 6 10 10 6 3 3 3 3 3 0 0 0 0 0 0 0 0 0 0 0 0 0 0 0 0 0 0 0 0 0 0 0 0 0 0 0 0 0 0 0 0 0
3 3 10 6 6 3 3 3 3 3 0 0 0 0 0 0 0 0 0 0 0 0 0 0 0 0 0 0 0 0 0 0 0 0 0 0 0 0 0 0 0 0 0
3 3 0 3 3 3 3 3 0 0 0 0 0 0 0 0 0 0 0 0 0 0 0 0 0 0 0 0 0 0 0 0 0 0 0 0 0 0 0 0 0 0 0
3 3 0 0 3 3 3 0 0 0 0 0 0 0 0 0 0 0 0 0 0 0 0 0 0 0 0 0 0 0 0 0 0 0 0 0 0 0 0 0 0 0 0
3 0 0 0 0 3 0 3 0 0 0 0 0 0 0 0 0 0 0 0 0 0 0 0 0 0 0 0 0 0 0 0 0 0 0 0 0 0 0 0 0 0 0
0 0 0 0 0 0 0 0 0 0 0 0 0 0 0 0 0 0 0 0 0 0 0 0 0 0 0 0 0 0 0 0 0 0 0 0 0 0 0 0 0 0 0

GEFSSE_con_cape1000_276.txt.gz
Probability
32 58 77 74 77 74 77 74 77 65 65 58 58 55 52 48 52 39 32 32 32 29 23 23 19 13 13 13 13 13 10 10 6 10 6 3 3 3 0 0 0 0 0
35 61 71 68 74 71 74 71 68 68 61 58 61 61 58 52 45 45 32 32 29 26 19 19 13 13 13 13 13 6 10 6 6 6 3 3 3 0 0 0 0 0 3
45 61 65 68 68 74 74 71 68 61 58 58 58 58 55 48 45 39 39 32 32 23 26 19 16 13 6 10 6 6 3 3 6 6 0 0 0 0 0 0 0 3 3
52 52 55 68 68 71 68 65 65 61 61 61 61 58 55 45 42 42 35 29 26 26 16 13 13 10 10 6 6 3 3 0 0 3 0 0 0 0 0 0 3 3 3
45 52 52 71 71 71 71 65 58 58 61 61 58 58 52 45 42 39 29 26 19 13 13 13 13 6 6 6 6 3 3 3 3 3 0 0 0 0 0 0 3 3 3
42 52 55 68 71 71 71 61 61 61 55 55 55 48 48 35 39 29 26 19 16 13 10 10 6 3 6 6 6 3 3 3 3 0 0 0 0 0 0 0 0 0 3
42 45 55 65 68 68 65 61 61 58 55 52 42 42 39 29 29 19 23 16 13 10 13 6 3 3 3 3 3 3 3 3 3 0 0 0 0 0 0 0 0 0 0
39 42 48 61 61 65 61 58 55 52 48 45 39 42 39 26 16 16 16 13 10 10 6 6 3 3 3 3 3 3 3 3 0 0 0 0 0 0 0 0 0 0 0
42 45 45 48 45 55 55 58 52 48 48 42 42 32 29 23 19 13 10 6 6 10 3 3 3 3 3 3 3 0 0 0 0 0 0 0 0 0 0 0 0 0 0
39 42 39 42 39 42 39 42 39 32 32 29 23 16 10 13 13 13 10 6 3 6 3 0 0 0 0 0 3 0 0 0 0 0 0 0 0 0 0 0 0 0 0
32 32 32 35 39 39 32 23 26 23 26 16 10 6 6 6 6 3 0 3 3 6 3 3 0 0 0 0 0 0 0 0 0 0 0 0 0 0 3 0 0 0 0
32 32 35 35 35 32 23 19 19 19 10 10 6 3 3 3 0 0 0 0 0 0 0 0 0 0 0 0 0 0 0 0 0 0 0 0 0 3 3 3 3 0 0
29 29 29 29 29 16 16 16 10 10 10 3 3 3 0 0 0 0 0 0 0 0 0 0 0 0 0 0 0 0 0 0 0 0 0 0 0 3 3 3 3 3 0
26 26 29 26 23 16 16 13 10 10 10 3 3 0 0 0 0 0 0 0 0 0 0 0 0 0 0 0 0 0 0 0 0 0 0 0 0 3 3 3 3 3 3
19 23 23 19 16 13 13 13 13 10 6 3 3 0 0 0 0 0 0 0 0 0 0 0 0 0 0 0 0 0 0 0 0 0 0 0 0 0 0 3 3 3 3
19 19 23 16 13 6 6 10 10 6 3 3 0 0 0 0 0 0 0 0 0 0 0 0 0 0 0 0 0 0 0 0 0 0 0 0 0 0 0 3 3 3 3
16 13 10 13 10 3 3 3 10 3 3 0 0 0 0 0 0 0 0 0 0 0 0 0 0 0 0 0 0 0 0 0 0 0 0 0 0 0 0 0 0 3 3
10 13 10 10 10 3 3 3 3 0 3 0 0 0 0 0 0 0 0 0 0 0 0 0 0 0 0 0 0 0 0 0 0 0 0 0 0 0 0 0 0 0 0
10 6 6 10 10 6 6 3 3 0 0 0 0 0 0 0 0 0 0 0 0 0 0 0 0 0 0 0 0 0 0 0 0 0 0 0 0 0 0 0 0 0 0
6 3 3 6 6 6 6 3 3 0 0 0 0 0 0 0 0 0 0 0 0 0 0 0 0 0 0 0 0 0 0 0 0 0 0 0 0 0 0 0 0 0 0
0 6 6 6 6 3 3 3 3 3 0 0 0 0 0 0 0 0 0 0 0 0 0 0 0 0 0 0 0 0 0 0 0 0 0 0 0 0 0 0 0 0 0
3 3 3 0 3 3 3 3 3 3 0 0 0 0 0 0 0 0 0 0 0 0 0 0 0 0 0 0 0 0 0 0 0 0 0 0 0 0 0 0 0 0 0
3 3 3 0 0 3 3 3 3 0 0 0 0 0 0 0 0 0 0 0 0 0 0 0 0 0 0 0 0 0 0 0 0 0 0 0 0 0 0 0 0 0 0
3 0 0 0 0 0 3 3 0 0 0 0 0 0 0 0 0 0 0 0 0 0 0 0 0 0 0 0 0 0 0 0 0 0 0 0 0 0 0 0 0 0 0
3 0 0 0 0 0 0 3 0 0 0 0 0 0 0 0 0 0 0 0 0 0 0 0 0 0 0 0 0 0 0 0 0 0 0 0 0 0 0 0 0 0 0
3 0 0 0 0 0 0 0 0 0 0 0 0 0 0 0 0 0 0 0 0 0 0 0 0 0 0 0 0 0 0 0 0 0 0 0 0 0 0 0 0 0 0

GEFSSE_con_cape1000_282.txt.gz
Probability
19 23 68 65 65 61 58 58 52 58 55 55 48 48 48 48 39 35 29 29 29 26 26 19 13 13 13 10 10 3 3 3 3 3 3 0 3 3 3 3 0 0 3
19 35 55 68 65 65 58 55 48 55 58 52 48 45 45 48 32 32 32 29 26 26 29 23 16 16 10 6 6 6 6 3 3 3 3 3 3 3 3 3 0 0 3
23 39 55 61 71 68 58 58 52 52 55 55 48 45 45 39 32 32 32 26 23 23 19 23 16 13 6 3 3 6 3 3 3 3 3 0 0 3 3 3 3 0 3
35 42 52 61 65 61 55 58 58 52 52 52 52 45 45 39 35 32 32 29 23 16 16 13 10 10 6 6 3 3 3 3 3 3 3 0 0 0 3 3 3 3 3
39 42 52 55 65 58 55 55 55 48 45 52 52 48 42 35 35 32 29 26 23 19 16 16 10 10 6 6 3 3 3 3 3 3 0 0 0 0 0 0 0 3 3
39 42 52 55 58 58 55 55 55 48 45 48 45 48 35 35 35 26 26 26 19 16 10 10 10 10 6 3 3 3 3 3 0 0 0 0 0 0 0 0 0 3 3
39 42 52 58 58 55 55 52 55 52 48 45 45 39 35 35 32 26 23 23 16 10 6 10 10 10 6 6 3 3 3 3 0 0 0 0 0 0 0 0 0 0 0
35 35 48 58 58 58 55 55 55 55 48 45 39 23 29 32 26 19 23 23 13 10 6 6 6 6 3 0 0 3 3 3 0 0 0 0 0 0 0 0 0 0 0
35 35 39 39 48 48 52 55 48 48 42 39 39 29 26 26 26 23 23 16 10 10 10 6 0 0 0 0 0 0 3 3 0 0 0 0 0 0 0 0 3 0 0
32 32 35 35 35 35 42 48 45 42 42 42 26 16 10 16 16 16 10 10 6 6 6 0 0 0 0 0 0 0 0 0 0 0 0 0 0 0 0 0 3 3 0
32 32 32 35 35 32 35 32 32 29 26 19 10 10 10 10 10 6 0 3 3 3 0 0 0 0 0 0 0 0 0 0 0 0 0 0 0 0 0 0 3 3 3
29 32 32 35 35 32 35 26 13 16 6 6 6 6 3 3 0 0 0 0 3 0 0 0 0 0 0 0 0 0 0 0 0 0 0 0 0 0 0 0 3 3 0
19 29 32 35 35 29 23 6 6 6 6 6 3 3 0 0 0 0 0 0 0 0 0 0 0 0 0 0 0 0 0 0 0 0 0 0 0 0 3 3 3 3 0
19 23 23 29 29 26 23 10 6 6 3 3 0 0 0 0 0 0 0 0 0 0 0 0 0 0 0 0 0 0 0 0 0 0 0 0 0 0 0 3 3 3 3
16 16 19 19 23 19 13 6 6 3 3 3 0 0 0 0 0 0 0 0 0 0 0 0 0 0 0 0 0 0 0 0 0 0 0 0 0 0 0 0 0 3 3
10 10 10 10 16 13 10 6 6 3 3 0 0 0 0 0 0 0 0 0 0 0 0 0 0 0 0 0 0 0 0 0 0 0 0 0 0 0 0 0 0 3 3
3 10 10 13 13 10 6 6 6 3 3 0 0 0 0 0 0 0 0 0 0 0 0 0 0 0 0 0 0 0 0 0 0 0 0 0 0 0 0 0 0 0 3
10 3 10 10 10 6 6 3 6 3 3 0 0 0 0 0 0 0 0 0 0 0 0 0 0 0 0 0 0 0 0 0 0 0 0 0 0 0 0 0 0 0 0
10 3 6 3 3 6 6 3 6 3 3 0 0 0 0 0 0 0 0 0 0 0 0 0 0 0 0 0 0 0 0 0 0 0 0 0 0 0 0 0 0 0 0
6 3 0 3 3 6 3 3 3 0 0 0 0 0 0 0 0 0 0 0 0 0 0 0 0 0 0 0 0 0 0 0 0 0 0 0 0 0 0 0 0 0 0
6 3 0 0 0 6 3 3 0 0 0 0 0 0 0 0 0 0 0 0 0 0 0 0 0 0 0 0 0 0 0 0 0 0 0 0 0 0 0 0 0 0 0
6 3 3 0 0 3 3 3 0 0 0 0 0 0 0 0 0 0 0 0 0 0 0 0 0 0 0 0 0 0 0 0 0 0 0 0 0 0 0 0 0 0 0
6 6 3 0 0 3 0 0 0 0 0 0 0 0 0 0 0 0 0 0 0 0 0 0 0 0 0 0 0 0 0 0 0 0 0 0 0 0 0 0 0 0 0
6 6 3 0 0 0 0 0 0 0 0 0 0 0 0 0 0 0 0 0 0 0 0 0 0 0 0 0 0 0 0 0 0 0 0 0 0 0 0 0 0 0 0
6 6 3 0 0 0 0 0 0 0 0 0 0 0 0 0 0 0 0 0 0 0 0 0 0 0 0 0 0 0 0 0 0 0 0 0 0 0 0 0 0 0 0
6 6 0 0 0 0 0 0 0 0 0 0 0 0 0 0 0 0 0 0 0 0 0 0 0 0 0 0 0 0 0 0 0 0 0 0 0 0 0 0 0 0 0

GEFSSE_con_cape1000_288.txt.gz
Probability
32 48 61 61 58 58 55 52 55 58 55 52 52 45 42 42 32 29 23 23 19 16 16 16 13 13 10 3 3 3 3 3 3 3 0 0 0 3 3 3 3 0 3
29 48 61 65 61 65 58 48 52 55 58 55 55 48 45 35 29 23 26 23 19 19 16 16 13 13 6 3 6 6 6 3 3 3 3 3 3 3 3 3 3 0 3
26 35 52 65 68 61 55 52 52 52 48 52 52 48 39 32 23 29 26 29 23 23 16 13 16 10 10 10 10 6 3 3 3 3 3 0 3 3 3 3 3 3 3
26 35 42 68 61 55 52 55 48 45 39 45 45 42 39 29 29 26 23 23 26 19 16 16 13 10 16 13 6 3 3 3 3 3 3 0 0 3 3 3 3 3 3
26 32 52 61 55 58 58 55 45 42 39 35 42 35 35 35 29 26 26 23 23 23 19 19 16 10 10 3 3 3 3 3 3 3 0 0 0 3 3 3 3 3 3
32 42 55 61 58 58 48 52 45 42 39 39 39 39 35 35 23 26 26 23 19 16 19 19 10 6 3 3 3 3 3 3 3 0 0 0 0 3 3 3 3 3 3
35 45 48 61 58 52 52 48 48 42 39 39 35 39 35 29 23 23 23 16 16 10 13 16 6 3 3 3 3 3 3 3 0 0 0 0 0 3 3 3 3 3 3
35 42 45 55 55 52 52 52 48 42 39 39 35 35 26 23 23 23 23 13 13 10 13 13 3 3 3 3 3 3 3 3 0 0 0 0 0 3 3 3 0 3 3
35 35 42 45 42 52 52 48 48 45 39 39 35 32 26 23 19 16 13 13 13 10 10 10 3 3 3 3 3 3 3 0 0 0 0 0 0 0 0 0 0 0 3
35 35 45 42 39 39 42 45 39 39 39 32 32 19 26 19 19 16 6 6 6 6 6 3 3 3 0 3 3 0 0 0 0 0 0 0 0 0 0 0 0 0 3
29 35 35 39 39 39 42 35 35 29 26 13 13 3 6 10 6 6 3 0 3 3 3 0 0 0 0 0 0 0 0 0 0 0 0 0 0 0 0 0 0 3 3
26 35 35 32 39 39 42 42 42 39 23 16 16 13 13 6 6 3 0 0 0 0 0 0 0 0 0 0 0 0 0 0 0 0 0 0 0 0 0 0 3 3 3
23 32 35 32 35 39 42 42 39 35 23 16 10 10 10 10 6 6 0 0 0 0 0 0 0 0 0 0 0 0 0 0 0 0 0 0 0 0 0 3 3 3 3
23 26 32 29 32 35 39 35 39 26 19 10 10 6 6 10 6 3 3 3 0 0 0 0 0 0 0 0 0 0 0 0 0 0 0 0 0 0 0 0 0 3 3
23 26 23 29 29 32 35 32 26 23 19 10 10 10 6 3 3 3 3 3 0 0 0 0 0 0 0 0 0 0 0 0 0 0 0 0 0 0 0 0 0 0 0
23 23 19 19 26 26 29 29 19 13 10 10 6 6 3 0 0 0 0 0 0 0 0 0 0 0 0 0 0 0 0 0 0 0 0 0 0 0 0 0 0 0 0
23 16 16 19 23 23 19 26 13 13 6 6 6 6 3 0 3 3 0 0 0 0 0 0 0 0 0 0 0 0 0 0 0 0 0 0 0 0 0 0 0 0 0
19 16 13 10 10 16 19 19 13 10 6 10 10 10 3 3 3 3 0 0 0 0 0 0 0 0 0 0 0 0 0 0 0 0 0 0 0 0 0 0 0 0 0
13 13 13 13 10 6 16 13 13 10 13 13 6 6 3 0 0 0 0 0 0 0 0 0 0 0 0 0 0 0 0 0 0 0 0 0 0 0 0 0 0 0 0
16 13 10 10 10 6 10 13 10 10 13 10 10 10 3 0 0 0 0 0 0 0 0 0 0 0 0 0 0 0 0 0 0 0 0 0 0 0 0 0 0 0 0
13 10 10 10 6 3 6 3 3 6 13 10 10 6 0 0 0 0 0 0 0 0 0 0 0 0 0 0 0 0 0 0 0 0 0 0 0 0 0 0 0 0 0
10 10 10 10 6 3 3 3 3 6 13 10 6 6 6 3 3 0 3 0 0 0 0 0 0 0 0 0 0 0 0 0 0 0 0 0 0 0 0 0 0 0 0
10 10 10 6 3 3 3 3 3 0 0 0 0 3 0 0 0 3 3 3 0 0 0 0 0 0 0 0 0 0 0 0 0 0 0 0 0 0 0 0 0 0 0
6 10 6 3 3 3 3 3 0 0 3 0 0 0 0 0 0 0 0 0 0 0 0 0 0 0 0 0 0 0 0 0 0 0 0 0 0 0 0 0 0 0 0
6 6 6 3 3 3 0 3 3 0 0 0 0 0 0 0 0 0 0 0 0 0 0 0 0 0 0 0 0 0 0 0 0 0 0 0 0 0 0 0 0 0 0
3 6 3 3 3 0 0 3 3 0 0 0 0 0 0 0 0 0 0 0 0 0 0 0 0 0 0 0 0 0 0 0 0 0 0 0 0 0 0 0 0 0 0